sat.trackr.live / text

‹ back to catalog

STARLINK-4332

NORAD 53190 · 2022-084B

PAYLOAD ACTIVE UNKNOWN

§ Identity

Operator
Country
US
Launch date
2022-07-22
Launch site
AFWTR
Launch vehicle
Mass (kg)
RCS (m²)

Purposes: comms

External: N2YO · Heavens-Above · Gunter

§ Orbital elements

Epoch: 2026-05-25T03:08:54.583584Z

Period
95.64 min
Inclination
97.4533°
Eccentricity
0.0000291
Mean motion
15.05629721 rev/d
Perigee alt
549.4 km
Apogee alt
549.8 km
Semi-major
6,927.7 km
B*
-1.8318e-4
RAAN
206.1898°
Arg perigee
183.2515°
Mean anomaly
176.8711°
Rev number
21,155

§ Raw data

STARLINK-43321 53190U 22084B   26145.13118731 -.00002699  00000+0 -18318-3 0  99982 53190  97.4533 206.1898 0000291 183.2515 176.8711 15.05629721211555

JSON: /api/v1/satellites/53190 · /tle

For live sub-satellite position, see the globe view (requires WebGL).

§ Visibility from observer

Set your observer location to see the next 7 days of passes ≥ 10°. The values pass through the URL so the page stays shareable.

No JS? Fill the form by hand. The geolocation button needs JavaScript.